• In Slovakia
  • List of Countries
  • For 7 days
  • Water Temperature
  • Satellite Maps
  • Weather Map
  • Weather Widgets
  • user-avatar
    Login

    Hourly Weather Marbella

    Today, 19 September, Tuesday

    Time Temperature Precipitation Wind Pressure Humidity
    00:00 +22°C° 0 mm 5 mps 759 mmHg 76%
    01:00 +21°C° 0 mm 4 mps 759 mmHg 76%
    02:00 +21°C° 0 mm 4 mps 759 mmHg 76%
    03:00 +21°C° 0 mm 3 mps 759 mmHg 75%
    04:00 +21°C° 0 mm 3 mps 759 mmHg 74%
    05:00 +20°C° 0 mm 3 mps 759 mmHg 72%
    06:00 +20°C° 0 mm 2 mps 759 mmHg 69%
    07:00 +23°C° 0 mm 2 mps 759 mmHg 60%
    08:00 +25°C° 0 mm 2 mps 759 mmHg 50%
    09:00 +27°C° 0 mm 2 mps 760 mmHg 41%
    10:00 +29°C° 0 mm 2 mps 760 mmHg 37%
    11:00 +30°C° 0 mm 2 mps 760 mmHg 33%
    12:00 +32°C° 0 mm 2 mps 759 mmHg 28%
    13:00 +32°C° 0 mm 2 mps 759 mmHg 28%
    14:00 +32°C° 0 mm 2 mps 759 mmHg 28%
    15:00 +32°C° 0 mm 2 mps 758 mmHg 28%
    16:00 +31°C° 0 mm 2 mps 758 mmHg 32%
    17:00 +30°C° 0 mm 2 mps 758 mmHg 35%
    18:00 +28°C° 0 mm 1 mps 758 mmHg 39%
    19:00 +27°C° 0 mm 1 mps 758 mmHg 44%
    20:00 +26°C° 0 mm 1 mps 758 mmHg 49%
    21:00 +24°C° 0 mm 1 mps 759 mmHg 55%
    22:00 +24°C° 0 mm 1 mps 759 mmHg 56%
    23:00 +24°C° 0 mm 1 mps 759 mmHg 57%

    Tomorrow, 20 September, Wednesday

    Time Temperature Precipitation Wind Pressure Humidity
    00:00 +24°C° 0 mm 1 mps 759 mmHg 59%
    01:00 +23°C° 0 mm 1 mps 758 mmHg 60%
    02:00 +23°C° 0 mm 1 mps 758 mmHg 60%
    03:00 +23°C° 0 mm 1 mps 758 mmHg 61%
    04:00 +23°C° 0 mm 1 mps 758 mmHg 62%
    05:00 +22°C° 0 mm 1 mps 758 mmHg 62%
    06:00 +21°C° 0 mm 2 mps 758 mmHg 63%
    07:00 +24°C° 0 mm 2 mps 758 mmHg 56%
    08:00 +26°C° 0 mm 2 mps 758 mmHg 50%
    09:00 +28°C° 0 mm 2 mps 758 mmHg 44%
    10:00 +29°C° 0 mm 2 mps 758 mmHg 40%
    11:00 +30°C° 0 mm 3 mps 758 mmHg 37%
    12:00 +33°C° 0 mm 3 mps 758 mmHg 33%
    13:00 +33°C° 0 mm 3 mps 757 mmHg 33%
    14:00 +33°C° 0 mm 3 mps 757 mmHg 32%
    15:00 +33°C° 0 mm 3 mps 756 mmHg 32%
    16:00 +31°C° 0 mm 3 mps 756 mmHg 35%
    17:00 +29°C° 0 mm 2 mps 756 mmHg 38%
    18:00 +28°C° 0 mm 2 mps 756 mmHg 40%
    19:00 +27°C° 0 mm 2 mps 756 mmHg 44%
    20:00 +26°C° 0 mm 2 mps 756 mmHg 47%
    21:00 +24°C° 0 mm 2 mps 757 mmHg 51%
    22:00 +24°C° 0 mm 2 mps 756 mmHg 50%
    23:00 +24°C° 0 mm 2 mps 756 mmHg 49%

    Day after tomorrow, 21 September, Thursday

    Time Temperature Precipitation Wind Pressure Humidity
    00:00 +23°C° 0 mm 2 mps 756 mmHg 48%
    01:00 +23°C° 0 mm 2 mps 756 mmHg 47%
    02:00 +23°C° 0 mm 2 mps 756 mmHg 46%
    03:00 +23°C° 0 mm 2 mps 756 mmHg 44%
    04:00 +21°C° 0 mm 2 mps 756 mmHg 43%
    05:00 +21°C° 0 mm 2 mps 756 mmHg 42%
    06:00 +21°C° 0 mm 2 mps 756 mmHg 42%
    07:00 +24°C° 0 mm 2 mps 756 mmHg 38%
    08:00 +26°C° 0 mm 1 mps 756 mmHg 34%
    09:00 +28°C° 0 mm 1 mps 756 mmHg 30%
    10:00 +29°C° 0 mm 1 mps 756 mmHg 29%
    11:00 +31°C° 0 mm 2 mps 756 mmHg 27%
    12:00 +32°C° 0 mm 2 mps 756 mmHg 26%
    13:00 +32°C° 0 mm 2 mps 755 mmHg 26%
    14:00 +32°C° 0 mm 2 mps 755 mmHg 27%
    15:00 +32°C° 0 mm 2 mps 754 mmHg 28%
    16:00 +31°C° 0 mm 2 mps 754 mmHg 32%
    17:00 +30°C° 0 mm 1 mps 754 mmHg 36%
    18:00 +28°C° 0 mm 1 mps 755 mmHg 40%
    19:00 +27°C° 0 mm 1 mps 755 mmHg 43%
    20:00 +26°C° 0 mm 1 mps 755 mmHg 46%
    21:00 +25°C° 0 mm 1 mps 756 mmHg 50%
    22:00 +25°C° 0 mm 1 mps 756 mmHg 50%
    23:00 +24°C° 0 mm 1 mps 756 mmHg 51%

    22 September, Friday

    Time Temperature Precipitation Wind Pressure Humidity
    00:00 +24°C° 0 mm 1 mps 756 mmHg 52%
    01:00 +24°C° 0 mm 1 mps 755 mmHg 52%
    02:00 +22°C° 0 mm 0 mps 755 mmHg 52%
    03:00 +21°C° 0 mm 0 mps 755 mmHg 52%
    04:00 +21°C° 0 mm 0 mps 755 mmHg 52%
    05:00 +21°C° 0 mm 0 mps 755 mmHg 52%
    06:00 +23°C° 0 mm 1 mps 755 mmHg 53%
    07:00 +23°C° 0 mm 0 mps 755 mmHg 47%
    08:00 +25°C° 0 mm 0 mps 756 mmHg 42%
    09:00 +27°C° 0 mm 0 mps 756 mmHg 37%
    10:00 +30°C° 0 mm 1 mps 756 mmHg 34%
    11:00 +31°C° 0 mm 2 mps 756 mmHg 32%
    12:00 +32°C° 0 mm 2 mps 756 mmHg 29%
    13:00 +32°C° 0 mm 2 mps 755 mmHg 29%
    14:00 +33°C° 0 mm 3 mps 755 mmHg 30%
    15:00 +33°C° 0 mm 3 mps 754 mmHg 30%
    16:00 +31°C° 0 mm 3 mps 754 mmHg 33%
    17:00 +29°C° 0 mm 2 mps 754 mmHg 36%
    18:00 +28°C° 0 mm 2 mps 754 mmHg 39%
    19:00 +27°C° 0 mm 2 mps 755 mmHg 42%
    20:00 +26°C° 0 mm 2 mps 755 mmHg 45%
    21:00 +25°C° 0 mm 2 mps 755 mmHg 48%
    22:00 +24°C° 0 mm 2 mps 755 mmHg 49%
    23:00 +24°C° 0 mm 2 mps 755 mmHg 50%

    23 September, Saturday

    Time Temperature Precipitation Wind Pressure Humidity
    00:00 +24°C° 0 mm 2 mps 755 mmHg 51%
    01:00 +23°C° 0 mm 2 mps 755 mmHg 53%
    02:00 +23°C° 0 mm 2 mps 755 mmHg 55%
    03:00 +23°C° 0 mm 2 mps 755 mmHg 57%
    04:00 +23°C° 0 mm 2 mps 755 mmHg 62%
    05:00 +21°C° 0 mm 2 mps 755 mmHg 67%
    06:00 +21°C° 0 mm 2 mps 755 mmHg 72%
    07:00 +24°C° 0 mm 2 mps 756 mmHg 67%
    08:00 +26°C° 0 mm 2 mps 756 mmHg 62%
    09:00 +28°C° 0 mm 2 mps 756 mmHg 57%
    10:00 +29°C° 0 mm 2 mps 756 mmHg 53%
    11:00 +30°C° 0 mm 2 mps 756 mmHg 49%
    12:00 +31°C° 0 mm 3 mps 756 mmHg 45%
    13:00 +31°C° 0 mm 3 mps 756 mmHg 45%
    14:00 +31°C° 0 mm 3 mps 755 mmHg 45%
    15:00 +31°C° 0 mm 3 mps 755 mmHg 45%
    16:00 +30°C° 0 mm 2 mps 755 mmHg 50%
    17:00 +29°C° 0 mm 2 mps 755 mmHg 54%
    18:00 +28°C° 0 mm 2 mps 755 mmHg 59%
    19:00 +27°C° 0 mm 2 mps 756 mmHg 65%
    20:00 +26°C° 0 mm 2 mps 756 mmHg 70%
    21:00 +25°C° 0 mm 2 mps 757 mmHg 76%
    22:00 +24°C° 0 mm 2 mps 757 mmHg 77%
    23:00 +24°C° 0 mm 2 mps 756 mmHg 79%

    24 September, Sunday

    Time Temperature Precipitation Wind Pressure Humidity
    00:00 +23°C° 0 mm 2 mps 756 mmHg 81%
    01:00 +23°C° 0 mm 2 mps 756 mmHg 81%
    02:00 +23°C° 0 mm 2 mps 756 mmHg 81%
    03:00 +21°C° 0 mm 2 mps 756 mmHg 81%
    04:00 +21°C° 0 mm 2 mps 756 mmHg 80%
    05:00 +21°C° 0 mm 2 mps 756 mmHg 79%
    06:00 +21°C° 0 mm 2 mps 756 mmHg 77%
    07:00 +24°C° 0 mm 2 mps 756 mmHg 70%
    08:00 +26°C° 0 mm 2 mps 757 mmHg 63%
    09:00 +28°C° 0 mm 2 mps 757 mmHg 56%
    10:00 +29°C° 0 mm 2 mps 757 mmHg 51%
    11:00 +30°C° 0 mm 2 mps 757 mmHg 47%
    12:00 +32°C° 0 mm 2 mps 756 mmHg 42%
    13:00 +32°C° 0 mm 2 mps 756 mmHg 42%
    14:00 +32°C° 0 mm 2 mps 756 mmHg 41%
    15:00 +32°C° 0 mm 2 mps 755 mmHg 41%
    16:00 +31°C° 0 mm 2 mps 755 mmHg 46%
    17:00 +30°C° 0 mm 2 mps 755 mmHg 52%
    18:00 +28°C° 0 mm 1 mps 755 mmHg 57%
    19:00 +27°C° 0 mm 1 mps 755 mmHg 63%
    20:00 +26°C° 0 mm 1 mps 756 mmHg 69%
    21:00 +25°C° 0 mm 1 mps 756 mmHg 75%
    22:00 +25°C° 0 mm 1 mps 756 mmHg 76%
    23:00 +24°C° 0 mm 1 mps 756 mmHg 77%
    Show more